Location: Hokitika
(42.7170°S, 170.9670°E)
Time: 10:27:36
(UTC+13:00)

Cosmos 1707 Rocket - Pass Details

Date: 24 January 2019
Orbit: 604 x 633 km, 82.5° (Epoch: 21 February)

Event Time Altitude Azimuth Distance (km) Brightness Sun altitude
Exits shadow 22:55:33 31° 45° (NE) 1,078 4.2 -16.4°
Maximum altitude 22:56:57 41° 88° (E) 897 4.0 -16.6°
Drops below altitude 10° 23:01:06 10° 158° (SSE) 1,992 6.5 -17.1°
Sets 23:03:25 0° 164° (SSE) 2,907 7.5 -17.4°
